AA121 KEWR-TNCA

Flight info

Callsign AA121
Flight time N/A
Altitude 33000
Route KEWR/04L N0434F330 DCT ELVAE DCT NECCK DCT DIXIE Y481 OHRYN/N0442F320 Y488 WEBBB/M076F320 Y488 HOBOH/M076F330 Y488 CHUBY/M076F320 Y488 SAUCR/M076F330 L453 LAMER/N0444F350 L453 RODRK/N0448F340 DCT SEKAR UL450 BEROX BERO2A TNCA/11
Aircraft B733/M-V/N

Departure

Time 2026-04-26 18:31
Airport Newark Liberty International Airport (KEWR)

Arrival

Time N/A
Airport Queen Beatrix International Airport (TNCA)
Time Latitude Longitude Altitude Speed Heading
2026-04-26 17:59 40.69338 -74.17227 18 ft 0 kts 357°
2026-04-26 18:10 40.69325 -74.17226 21 ft 3 kts 357°
2026-04-26 18:10 40.69308 -74.17227 18 ft 3 kts 38°
2026-04-26 18:10 40.69298 -74.17247 18 ft 3 kts 103°
2026-04-26 18:10 40.69307 -74.17266 18 ft 0 kts 152°
2026-04-26 18:14 40.69301 -74.17262 18 ft 1 kts 150°
2026-04-26 18:14 40.69295 -74.17257 22 ft 5 kts 145°
2026-04-26 18:14 40.69261 -74.17200 20 ft 9 kts 122°
2026-04-26 18:15 40.69236 -74.17158 22 ft 2 kts 154°
2026-04-26 18:15 40.69180 -74.17181 19 ft 14 kts 206°
2026-04-26 18:15 40.69098 -74.17234 18 ft 12 kts 206°
2026-04-26 18:15 40.69048 -74.17267 19 ft 5 kts 206°
2026-04-26 18:16 40.69043 -74.17270 19 ft 0 kts 206°
2026-04-26 18:17 40.69033 -74.17277 19 ft 1 kts 204°
2026-04-26 18:17 40.69027 -74.17272 19 ft 4 kts 155°
2026-04-26 18:17 40.68973 -74.17204 20 ft 6 kts 155°
2026-04-26 18:17 40.68939 -74.17211 21 ft 11 kts 201°
2026-04-26 18:18 40.68856 -74.17267 24 ft 13 kts 207°
2026-04-26 18:18 40.68782 -74.17315 26 ft 11 kts 206°
2026-04-26 18:18 40.68721 -74.17353 26 ft 9 kts 205°
2026-04-26 18:18 40.68664 -74.17389 28 ft 9 kts 205°
2026-04-26 18:19 40.68600 -74.17429 27 ft 11 kts 205°
2026-04-26 18:19 40.68519 -74.17480 28 ft 15 kts 206°
2026-04-26 18:19 40.68423 -74.17541 25 ft 16 kts 205°
2026-04-26 18:19 40.68312 -74.17611 22 ft 19 kts 206°
2026-04-26 18:20 40.68189 -74.17691 22 ft 19 kts 206°
2026-04-26 18:20 40.68069 -74.17768 21 ft 20 kts 206°
2026-04-26 18:20 40.67941 -74.17848 23 ft 20 kts 205°
2026-04-26 18:20 40.67899 -74.17875 25 ft 20 kts 207°
2026-04-26 18:21 40.67733 -74.17978 25 ft 9 kts 205°
2026-04-26 18:21 40.67711 -74.17991 23 ft 2 kts 208°
2026-04-26 18:21 40.67708 -74.17993 23 ft 0 kts 208°
2026-04-26 18:24 40.67707 -74.17994 23 ft 1 kts 208°
2026-04-26 18:24 40.67681 -74.18012 25 ft 2 kts 207°
2026-04-26 18:29 40.67672 -74.18018 25 ft 4 kts 207°
2026-04-26 18:29 40.67627 -74.18042 25 ft 8 kts 193°
2026-04-26 18:30 40.67576 -74.18005 23 ft 11 kts 124°
2026-04-26 18:30 40.67589 -74.17908 27 ft 14 kts 25°
2026-04-26 18:30 40.67808 -74.17771 22 ft 65 kts 27°
2026-04-26 18:30 40.68397 -74.17396 25 ft 119 kts 24°
2026-04-26 18:31 40.69245 -74.16856 155 ft 143 kts 28°
2026-04-26 18:31 40.70166 -74.16215 380 ft 154 kts 34°
2026-04-26 18:31 40.70968 -74.15302 738 ft 151 kts 45°
2026-04-26 18:31 40.71720 -74.14353 1042 ft 150 kts 46°
2026-04-26 18:32 40.72450 -74.13415 1348 ft 149 kts 45°
2026-04-26 18:32 40.73192 -74.12456 1598 ft 150 kts 45°
2026-04-26 18:32 40.73944 -74.11476 1830 ft 154 kts 42°
2026-04-26 18:32 40.74725 -74.10524 2116 ft 152 kts 43°
2026-04-26 18:33 40.75521 -74.09551 2324 ft 161 kts 43°
2026-04-26 18:33 40.76323 -74.08564 2781 ft 155 kts 43°
2026-04-26 18:33 40.77127 -74.07554 3011 ft 163 kts 44°
2026-04-26 18:33 40.77945 -74.06506 3379 ft 163 kts 44°
2026-04-26 18:34 40.78734 -74.05469 3751 ft 161 kts 42°
2026-04-26 18:34 40.79782 -74.04841 3935 ft 175 kts 12°
2026-04-26 18:34 40.80995 -74.04884 4291 ft 177 kts 354°
2026-04-26 18:34 40.82176 -74.05522 4308 ft 203 kts 316°
2026-04-26 18:35 40.82729 -74.07342 4335 ft 233 kts 272°
2026-04-26 18:35 40.82198 -74.09416 4390 ft 251 kts 231°
2026-04-26 18:35 40.80741 -74.10686 4509 ft 257 kts 193°
2026-04-26 18:35 40.78970 -74.11097 4664 ft 261 kts 186°
2026-04-26 18:36 40.77180 -74.11550 5016 ft 271 kts 193°
2026-04-26 18:36 40.75388 -74.12467 5645 ft 281 kts 207°
2026-04-26 18:36 40.73692 -74.13789 6363 ft 286 kts 212°
2026-04-26 18:36 40.71980 -74.15167 7060 ft 290 kts 210°
2026-04-26 18:37 40.70199 -74.16452 7762 ft 294 kts 208°
2026-04-26 18:37 40.68372 -74.17726 8483 ft 298 kts 209°
2026-04-26 18:37 40.66541 -74.19041 9195 ft 302 kts 210°
2026-04-26 18:37 40.64691 -74.20391 9931 ft 305 kts 211°
2026-04-26 18:38 40.62810 -74.21753 10535 ft 313 kts 210°
2026-04-26 18:38 40.60860 -74.23156 10954 ft 326 kts 211°
2026-04-26 18:38 40.58822 -74.24621 11302 ft 342 kts 211°
2026-04-26 18:38 40.56671 -74.26113 11684 ft 356 kts 204°
2026-04-26 18:39 40.54214 -74.26781 12222 ft 368 kts 181°
2026-04-26 18:39 40.51672 -74.26189 12821 ft 376 kts 162°
2026-04-26 18:39 40.49195 -74.25019 13421 ft 382 kts 159°
2026-04-26 18:39 40.46712 -74.23699 14016 ft 388 kts 158°
2026-04-26 18:40 40.44180 -74.22397 14569 ft 393 kts 160°
2026-04-26 18:40 40.41632 -74.21168 15144 ft 398 kts 160°
2026-04-26 18:40 40.39020 -74.19903 15743 ft 403 kts 160°
2026-04-26 18:40 40.36388 -74.18588 16328 ft 407 kts 159°
2026-04-26 18:41 40.33726 -74.17254 16903 ft 412 kts 159°
2026-04-26 18:41 40.30970 -74.16186 17453 ft 414 kts 173°
2026-04-26 18:41 40.28091 -74.16018 18014 ft 416 kts 182°
2026-04-26 18:41 40.25180 -74.16092 18559 ft 420 kts 184°
2026-04-26 18:42 40.22245 -74.16203 19055 ft 424 kts 184°
2026-04-26 18:42 40.19281 -74.16266 19544 ft 427 kts 182°
2026-04-26 18:42 40.16319 -74.15797 20040 ft 433 kts 166°
2026-04-26 18:42 40.13503 -74.14365 20530 ft 437 kts 151°
2026-04-26 18:43 40.11025 -74.12050 21017 ft 439 kts 135°
2026-04-26 18:43 40.09065 -74.09000 21496 ft 439 kts 120°
2026-04-26 18:43 40.07749 -74.05421 21937 ft 437 kts 104°
2026-04-26 18:43 40.06922 -74.01603 22387 ft 438 kts 102°
2026-04-26 18:44 40.06161 -73.97744 22838 ft 440 kts 101°
2026-04-26 18:44 40.05399 -73.93852 23263 ft 444 kts 102°
2026-04-26 18:44 40.04602 -73.89948 23678 ft 447 kts 103°
2026-04-26 18:44 40.03788 -73.86017 24036 ft 450 kts 103°
2026-04-26 18:45 40.02982 -73.82057 24375 ft 453 kts 102°
2026-04-26 18:45 40.02187 -73.78117 24708 ft 456 kts 103°
2026-04-26 18:45 40.01370 -73.74107 25051 ft 459 kts 103°
2026-04-26 18:45 40.00539 -73.70074 25388 ft 461 kts 103°
2026-04-26 18:46 39.99706 -73.66020 25723 ft 464 kts 103°
2026-04-26 18:46 39.98869 -73.61932 26040 ft 467 kts 104°
2026-04-26 18:46 39.98025 -73.57832 26355 ft 470 kts 105°
2026-04-26 18:46 39.97172 -73.53705 26668 ft 473 kts 105°
2026-04-26 18:47 39.96314 -73.49554 26974 ft 476 kts 105°
2026-04-26 18:47 39.95449 -73.45377 27279 ft 478 kts 105°
2026-04-26 18:47 39.94579 -73.41181 27588 ft 481 kts 105°
2026-04-26 18:47 39.93700 -73.36955 27898 ft 484 kts 105°
2026-04-26 18:48 39.92816 -73.32718 28197 ft 486 kts 106°
2026-04-26 18:48 39.91928 -73.28459 28493 ft 489 kts 107°
2026-04-26 18:48 39.91030 -73.24170 28771 ft 492 kts 107°
2026-04-26 18:48 39.90127 -73.19863 29050 ft 495 kts 107°
2026-04-26 18:49 39.89216 -73.15529 29341 ft 498 kts 107°
2026-04-26 18:49 39.88300 -73.11172 29643 ft 499 kts 108°
2026-04-26 18:49 39.87392 -73.06873 30018 ft 499 kts 108°
2026-04-26 18:49 39.86471 -73.02512 30365 ft 499 kts 108°
2026-04-26 18:50 39.85550 -72.98160 30674 ft 499 kts 108°
2026-04-26 18:50 39.84624 -72.93796 30979 ft 500 kts 109°
2026-04-26 18:50 39.83696 -72.89432 31284 ft 500 kts 109°
2026-04-26 18:50 39.82765 -72.85068 31578 ft 501 kts 110°
2026-04-26 18:51 39.81726 -72.80757 31875 ft 498 kts 114°
2026-04-26 18:51 39.80572 -72.76510 32183 ft 498 kts 114°
2026-04-26 18:51 39.79413 -72.72261 32475 ft 498 kts 114°
2026-04-26 18:51 39.78262 -72.68007 32774 ft 499 kts 114°
2026-04-26 18:52 39.77115 -72.63759 33081 ft 497 kts 115°
2026-04-26 18:52 39.75970 -72.59544 33087 ft 489 kts 115°
2026-04-26 18:52 39.73715 -72.51305 33104 ft 487 kts 116°
2026-04-26 18:53 39.71453 -72.43018 33105 ft 486 kts 116°
2026-04-26 18:53 39.69178 -72.34736 33099 ft 487 kts 116°
2026-04-26 18:54 39.66900 -72.26462 33093 ft 487 kts 116°
2026-04-26 18:54 39.64116 -72.18581 33106 ft 472 kts 133°
2026-04-26 18:55 39.62073 -72.15321 33118 ft 460 kts 141°
2026-04-26 18:55 39.59886 -72.12269 33098 ft 461 kts 141°
2026-04-26 18:55 39.55515 -72.06178 33095 ft 462 kts 141°
2026-04-26 18:56 39.51172 -72.00120 33092 ft 461 kts 141°
2026-04-26 18:56 39.46800 -71.94045 33062 ft 460 kts 141°
2026-04-26 18:57 39.43176 -71.89012 33068 ft 457 kts 141°
2026-04-26 18:57 39.38088 -71.81969 33061 ft 459 kts 141°
2026-04-26 18:58 39.33720 -71.75927 33068 ft 460 kts 141°
2026-04-26 18:58 39.29348 -71.69897 33062 ft 460 kts 142°
2026-04-26 18:59 39.24967 -71.63867 33056 ft 459 kts 143°
2026-04-26 18:59 39.20018 -71.59078 33056 ft 442 kts 163°
2026-04-26 19:00 39.14286 -71.56733 33052 ft 427 kts 181°
2026-04-26 19:00 39.08385 -71.56268 33038 ft 426 kts 185°
2026-04-26 19:01 39.02458 -71.55903 33022 ft 426 kts 185°
2026-04-26 19:01 38.96541 -71.55544 33006 ft 426 kts 184°
2026-04-26 19:02 38.90615 -71.55184 33001 ft 426 kts 184°
2026-04-26 19:02 38.85704 -71.54885 32987 ft 425 kts 184°
2026-04-26 19:03 38.78791 -71.54469 32982 ft 426 kts 184°
2026-04-26 19:03 38.72890 -71.54113 32987 ft 430 kts 184°
2026-04-26 19:04 38.66937 -71.53751 32975 ft 427 kts 184°
2026-04-26 19:04 38.60995 -71.53396 32969 ft 427 kts 184°
2026-04-26 19:05 38.55120 -71.53706 32983 ft 419 kts 197°
2026-04-26 19:05 38.52319 -71.54692 32970 ft 417 kts 205°
2026-04-26 19:06 38.46949 -71.57450 32978 ft 414 kts 207°
2026-04-26 19:06 38.41604 -71.60207 32975 ft 415 kts 207°
2026-04-26 19:07 38.36254 -71.62968 32969 ft 415 kts 207°
2026-04-26 19:07 38.30889 -71.65729 32959 ft 417 kts 207°
2026-04-26 19:08 38.25557 -71.68469 32957 ft 416 kts 207°
2026-04-26 19:08 38.20172 -71.71232 32963 ft 416 kts 207°
2026-04-26 19:09 38.14802 -71.73984 32966 ft 416 kts 207°
2026-04-26 19:09 38.10323 -71.76274 32965 ft 417 kts 207°
2026-04-26 19:10 38.04944 -71.79022 32964 ft 417 kts 207°
2026-04-26 19:10 37.99571 -71.81762 32968 ft 416 kts 207°
2026-04-26 19:11 37.94203 -71.84495 32961 ft 415 kts 207°
2026-04-26 19:11 37.88834 -71.87226 32961 ft 416 kts 206°
2026-04-26 19:12 37.83479 -71.89943 32961 ft 417 kts 206°
2026-04-26 19:12 37.78096 -71.92671 32971 ft 417 kts 206°
2026-04-26 19:13 37.72705 -71.95399 32968 ft 417 kts 206°
2026-04-26 19:13 37.67327 -71.98120 32963 ft 414 kts 207°
2026-04-26 19:14 37.62089 -72.01170 32972 ft 415 kts 209°
2026-04-26 19:14 37.56869 -72.04218 32974 ft 415 kts 209°
2026-04-26 19:15 37.51614 -72.07284 32977 ft 415 kts 209°
2026-04-26 19:15 37.46358 -72.10348 32965 ft 416 kts 208°
2026-04-26 19:16 37.41102 -72.13404 32978 ft 416 kts 208°
2026-04-26 19:16 37.35848 -72.16457 32979 ft 416 kts 208°
2026-04-26 19:17 37.30601 -72.19499 32977 ft 416 kts 208°
2026-04-26 19:17 37.25358 -72.22536 32971 ft 420 kts 207°
2026-04-26 19:18 37.20078 -72.25586 32991 ft 417 kts 207°
2026-04-26 19:18 37.14833 -72.28613 32989 ft 414 kts 208°
2026-04-26 19:19 37.09586 -72.31640 32987 ft 415 kts 208°
2026-04-26 19:19 37.04322 -72.34667 32988 ft 415 kts 208°
2026-04-26 19:20 36.99066 -72.37688 32986 ft 415 kts 208°
2026-04-26 19:20 36.93838 -72.40684 32995 ft 415 kts 208°
2026-04-26 19:21 36.88579 -72.43703 32993 ft 415 kts 208°
2026-04-26 19:21 36.83304 -72.46717 32988 ft 418 kts 207°
2026-04-26 19:22 36.78021 -72.49731 32994 ft 417 kts 208°
2026-04-26 19:22 36.72629 -72.52306 32996 ft 422 kts 196°
2026-04-26 19:23 36.66732 -72.52768 32992 ft 430 kts 179°
2026-04-26 19:23 36.60852 -72.51128 32989 ft 435 kts 170°
2026-04-26 19:24 36.55009 -72.49222 32988 ft 433 kts 171°
2026-04-26 19:24 36.46267 -72.46368 32988 ft 433 kts 170°
2026-04-26 19:25 36.41420 -72.44791 32986 ft 433 kts 171°
2026-04-26 19:25 36.34606 -72.42576 32977 ft 434 kts 170°
2026-04-26 19:26 36.28757 -72.40677 32975 ft 434 kts 170°
2026-04-26 19:26 36.22942 -72.38792 32974 ft 434 kts 170°
2026-04-26 19:27 36.17099 -72.36902 32976 ft 434 kts 170°
2026-04-26 19:27 36.11249 -72.35012 32974 ft 435 kts 170°
2026-04-26 19:28 36.05388 -72.33142 32978 ft 433 kts 173°
2026-04-26 19:28 35.99438 -72.32734 32989 ft 428 kts 185°
2026-04-26 19:29 35.93512 -72.32827 32988 ft 429 kts 184°
2026-04-26 19:29 35.87549 -72.32909 32977 ft 428 kts 185°
2026-04-26 19:30 35.81584 -72.32998 32979 ft 428 kts 185°
2026-04-26 19:30 35.76634 -72.33068 32979 ft 428 kts 185°
2026-04-26 19:31 35.69711 -72.33168 32983 ft 428 kts 185°
2026-04-26 19:31 35.63745 -72.33253 32982 ft 428 kts 185°
2026-04-26 19:32 35.57769 -72.33341 32988 ft 429 kts 185°
2026-04-26 19:32 35.51794 -72.33425 32991 ft 429 kts 185°
2026-04-26 19:33 35.45816 -72.33511 32991 ft 429 kts 185°
2026-04-26 19:33 35.39836 -72.33597 32982 ft 429 kts 185°
2026-04-26 19:34 35.33854 -72.33682 32982 ft 429 kts 185°
2026-04-26 19:34 35.27884 -72.33767 32982 ft 429 kts 185°
2026-04-26 19:35 35.21958 -72.33851 32979 ft 428 kts 185°
2026-04-26 19:35 35.16011 -72.33935 32984 ft 425 kts 185°
2026-04-26 19:36 35.11072 -72.34007 32990 ft 427 kts 185°
2026-04-26 19:36 35.04117 -72.34105 32992 ft 428 kts 185°
2026-04-26 19:37 34.98160 -72.34190 32994 ft 428 kts 185°
2026-04-26 19:37 34.92323 -72.34942 32991 ft 424 kts 192°
2026-04-26 19:38 34.86466 -72.35898 32997 ft 424 kts 192°
2026-04-26 19:38 34.80613 -72.36855 32999 ft 425 kts 192°
2026-04-26 19:39 34.74752 -72.37809 33000 ft 425 kts 192°
2026-04-26 19:39 34.68794 -72.37795 32995 ft 430 kts 180°
2026-04-26 19:40 34.62880 -72.37146 32999 ft 429 kts 180°
2026-04-26 19:40 34.56931 -72.36504 32997 ft 429 kts 180°
2026-04-26 19:41 34.50987 -72.35856 32995 ft 429 kts 180°
2026-04-26 19:41 34.46048 -72.35322 32994 ft 429 kts 180°
2026-04-26 19:42 34.39070 -72.34567 32993 ft 431 kts 180°
2026-04-26 19:42 34.33094 -72.33920 32991 ft 430 kts 180°
2026-04-26 19:43 34.27123 -72.33277 32991 ft 430 kts 180°
2026-04-26 19:43 34.21154 -72.32633 32991 ft 431 kts 180°
2026-04-26 19:44 34.15170 -72.31991 32992 ft 432 kts 180°
2026-04-26 19:44 34.09219 -72.31350 32989 ft 431 kts 180°
2026-04-26 19:45 34.03235 -72.30709 32989 ft 431 kts 180°
2026-04-26 19:45 33.97264 -72.29932 33003 ft 435 kts 173°
2026-04-26 19:46 33.91348 -72.28271 33004 ft 437 kts 172°
2026-04-26 19:46 33.85428 -72.26665 33001 ft 435 kts 172°
2026-04-26 19:47 33.81517 -72.25583 33001 ft 435 kts 172°
2026-04-26 19:47 33.73628 -72.23421 33000 ft 436 kts 173°
2026-04-26 19:48 33.67714 -72.21800 32978 ft 436 kts 173°
2026-04-26 19:48 33.61769 -72.20176 32993 ft 438 kts 173°
2026-04-26 19:49 33.55833 -72.18554 32997 ft 438 kts 173°
2026-04-26 19:49 33.49886 -72.16934 33000 ft 438 kts 173°
2026-04-26 19:50 33.43987 -72.15327 32994 ft 438 kts 173°
2026-04-26 19:50 33.38038 -72.13710 32992 ft 438 kts 173°
2026-04-26 19:51 33.32088 -72.12094 32998 ft 438 kts 173°
2026-04-26 19:51 33.26137 -72.10481 33003 ft 438 kts 173°
2026-04-26 19:52 33.20186 -72.08870 33002 ft 438 kts 173°
2026-04-26 19:52 33.14238 -72.07262 33002 ft 438 kts 173°
2026-04-26 19:53 33.08274 -72.05652 33004 ft 439 kts 173°
2026-04-26 19:53 33.02313 -72.04044 33002 ft 439 kts 173°
2026-04-26 19:54 32.96369 -72.02444 32996 ft 438 kts 173°
2026-04-26 19:54 32.90417 -72.00844 32995 ft 438 kts 173°
2026-04-26 19:55 32.84491 -71.99255 33002 ft 441 kts 173°
2026-04-26 19:55 32.78516 -71.97650 33000 ft 439 kts 173°